Location: Ahstedt
(52.2048°N, 10.1060°E)
Time: 05:37:05
(UTC+00:00)

Cosmos 2278 Rocket - Pass Details

Date: 18 January 2026
Orbit: 839 x 846 km, 71.0° (Epoch: 18 February)

Event Time Altitude Azimuth Distance (km) Brightness Sun altitude
Exits shadow 04:14:17 - 185° (S) 2,499 4.6 -27.6°
Reaches altitude 10° 04:14:25 10° 184° (S) 2,451 4.5 -27.6°
Maximum altitude 04:19:48 49° 111° (ESE) 1,084 3.0 -26.8°
Drops below altitude 10° 04:25:13 10° 39° (NE) 2,471 5.1 -25.9°
Sets 04:27:45 0° 34° (NE) 3,411 5.8 -25.5°
